{"data":{"norad_id":55276,"intl_designator":"2023-010H","name":"STARLINK-5261","alt_names":[],"object_type":"PAYLOAD","status":"ACTIVE","operator":null,"country":"US","launch_date":"2023-01-19","launch_site_code":"AFWTR","launch_vehicle":null,"mission":null,"orbit_class":"UNKNOWN","rcs_meters":null,"size_class":null,"mass_kg":null,"dimensions":null,"purposes":["comms"],"wikipedia_slug":null,"has_3d_model":false,"image_url":null,"decayed_at":null,"tle_current":{"epoch":"2026-09-20T16:15:00.518112Z","epoch_age_seconds":78112,"freshness":"FRESH","line1":"1 55276U 23010H   26263.67708933  .00001026  00000+0  93737-4 0  9994","line2":"2 55276  69.9982 252.9328 0003657 267.8336  92.2404 14.98330442202471","mean_motion":14.98330442,"eccentricity":0.0003657,"inclination_deg":69.9982,"raan_deg":252.9328,"arg_perigee_deg":267.8336,"mean_anomaly_deg":92.2404,"bstar":9.3737e-5,"rev_number":20247,"period_min":96.106970774608,"perigee_km":569.51283905585,"apogee_km":574.59620913657,"semimajor_km":6950.1915240962,"source":"CELESTRAK","updated_at":"2026-09-21T09:00:33.165238Z"}}}